Time,TemperatureF,DewpointF,PressureIn,WindDirection,WindDirectionDegrees,WindSpeedMPH,WindSpeedGustMPH,Humidity,HourlyPrecipIn,Conditions,Clouds,dailyrainin,SoftwareType,DateUTC
2013-02-02 00:00:00,28.6,16.5,30.35,North,360,0.0,0.0,60,0.00,CLR,,0.00,WeatherDisplay:10.37,2013-02-02 05:00:00,
2013-02-02 00:01:00,28.6,16.5,30.35,North,360,0.0,0.0,60,0.00,CLR,,0.00,WeatherDisplay:10.37,2013-02-02 05:01:00,
2013-02-02 00:06:00,28.4,16.7,30.34,North,360,0.0,0.0,61,0.00,CLR,,0.00,WeatherDisplay:10.37,2013-02-02 05:06:00,
2013-02-02 00:11:00,28.1,16.0,30.34,North,360,0.0,0.0,60,0.00,CLR,,0.00,WeatherDisplay:10.37,2013-02-02 05:11:00,
2013-02-02 00:16:00,27.9,15.8,30.34,North,360,0.0,0.0,60,0.00,CLR,,0.00,WeatherDisplay:10.37,2013-02-02 05:16:00,
2013-02-02 00:21:00,27.6,16.3,30.34,North,360,0.0,0.0,62,0.00,CLR,,0.00,WeatherDisplay:10.37,2013-02-02 05:21:00,
2013-02-02 00:26:00,27.5,16.9,30.34,North,360,0.0,0.0,64,0.00,CLR,,0.00,WeatherDisplay:10.37,2013-02-02 05:26:00,
2013-02-02 00:31:00,27.5,16.9,30.34,North,360,0.0,0.0,64,0.00,CLR,,0.00,WeatherDisplay:10.37,2013-02-02 05:31:00,
2013-02-02 00:36:00,27.4,16.8,30.35,North,360,0.0,0.0,64,0.00,CLR,,0.00,WeatherDisplay:10.37,2013-02-02 05:36:00,
2013-02-02 00:41:00,27.3,17.1,30.35,North,360,0.0,0.0,65,0.00,CLR,,0.00,WeatherDisplay:10.37,2013-02-02 05:41:00,
2013-02-02 00:46:00,27.1,16.5,30.34,North,360,0.0,0.0,64,0.00,CLR,,0.00,WeatherDisplay:10.37,2013-02-02 05:46:00,
2013-02-02 00:51:00,26.9,15.6,30.34,North,360,0.0,0.0,62,0.00,CLR,,0.00,WeatherDisplay:10.37,2013-02-02 05:51:00,
2013-02-02 00:56:00,26.7,15.4,30.34,North,360,0.0,0.0,62,0.00,CLR,,0.00,WeatherDisplay:10.37,2013-02-02 05:56:00,
2013-02-02 01:01:00,26.6,17.5,30.34,North,360,0.0,0.0,68,0.00,CLR,,0.00,WeatherDisplay:10.37,2013-02-02 06:01:00,
2013-02-02 01:06:00,26.5,16.7,30.34,North,360,0.0,0.0,66,0.00,CLR,,0.00,WeatherDisplay:10.37,2013-02-02 06:06:00,
2013-02-02 01:11:00,26.4,16.9,30.34,North,360,0.0,0.0,67,0.00,CLR,,0.00,WeatherDisplay:10.37,2013-02-02 06:11:00,
2013-02-02 01:16:00,26.2,16.4,30.34,North,360,0.0,0.0,66,0.00,CLR,,0.00,WeatherDisplay:10.37,2013-02-02 06:16:00,
2013-02-02 01:21:00,26.2,17.1,30.34,North,360,0.0,0.0,68,0.00,CLR,,0.00,WeatherDisplay:10.37,2013-02-02 06:21:00,
2013-02-02 01:26:00,26.1,17.3,30.34,North,360,0.0,0.0,69,0.00,CLR,,0.00,WeatherDisplay:10.37,2013-02-02 06:26:00,
2013-02-02 01:31:00,26.1,17.3,30.35,North,360,0.0,0.0,69,0.00,CLR,,0.00,WeatherDisplay:10.37,2013-02-02 06:31:00,
2013-02-02 01:36:00,26.0,17.2,30.34,North,360,0.0,0.0,69,0.00,CLR,,0.00,WeatherDisplay:10.37,2013-02-02 06:36:00,
2013-02-02 01:41:00,25.9,17.5,30.33,North,360,0.0,0.0,70,0.00,CLR,,0.00,WeatherDisplay:10.37,2013-02-02 06:41:00,
2013-02-02 01:46:00,25.9,17.1,30.33,North,360,0.0,0.0,69,0.00,CLR,,0.00,WeatherDisplay:10.37,2013-02-02 06:46:00,
2013-02-02 01:51:00,25.9,17.1,30.33,North,360,0.0,0.0,69,0.00,CLR,,0.00,WeatherDisplay:10.37,2013-02-02 06:51:00,
2013-02-02 01:56:00,25.9,17.1,30.34,North,360,0.0,0.0,69,0.00,CLR,,0.00,WeatherDisplay:10.37,2013-02-02 06:56:00,
2013-02-02 02:01:00,25.8,17.0,30.34,North,360,0.0,0.0,69,0.00,CLR,,0.00,WeatherDisplay:10.37,2013-02-02 07:01:00,
2013-02-02 02:06:00,25.7,16.6,30.33,North,360,0.0,0.0,68,0.00,CLR,,0.00,WeatherDisplay:10.37,2013-02-02 07:06:00,
2013-02-02 02:11:00,25.8,17.0,30.34,North,360,0.0,0.0,69,0.00,CLR,,0.00,WeatherDisplay:10.37,2013-02-02 07:11:00,
2013-02-02 02:16:00,25.9,17.1,30.34,North,360,0.0,0.0,69,0.00,CLR,,0.00,WeatherDisplay:10.37,2013-02-02 07:16:00,
2013-02-02 02:21:00,26.0,16.9,30.34,North,360,0.0,0.0,68,0.00,CLR,,0.00,WeatherDisplay:10.37,2013-02-02 07:21:00,
2013-02-02 02:26:00,26.1,17.3,30.34,North,360,0.0,0.0,69,0.00,CLR,,0.00,WeatherDisplay:10.37,2013-02-02 07:26:00,
2013-02-02 02:31:00,26.0,17.6,30.34,North,360,0.0,0.0,70,0.00,CLR,,0.00,WeatherDisplay:10.37,2013-02-02 07:31:00,
2013-02-02 02:36:00,26.0,17.2,30.34,North,360,0.0,0.0,69,0.00,CLR,,0.00,WeatherDisplay:10.37,2013-02-02 07:36:00,
2013-02-02 02:41:00,25.8,17.4,30.34,North,360,0.0,0.0,70,0.00,CLR,,0.00,WeatherDisplay:10.37,2013-02-02 07:41:00,
2013-02-02 02:46:00,25.7,17.3,30.34,North,360,0.0,0.0,70,0.00,CLR,,0.00,WeatherDisplay:10.37,2013-02-02 07:46:00,
2013-02-02 02:51:00,25.8,17.7,30.34,North,360,0.0,0.0,71,0.00,CLR,,0.00,WeatherDisplay:10.37,2013-02-02 07:51:00,
2013-02-02 02:56:00,25.8,17.7,30.33,North,360,0.0,0.0,71,0.00,CLR,,0.00,WeatherDisplay:10.37,2013-02-02 07:56:00,
2013-02-02 03:01:00,25.7,17.3,30.33,North,360,0.0,0.0,70,0.00,CLR,,0.00,WeatherDisplay:10.37,2013-02-02 08:01:00,
2013-02-02 03:06:00,25.6,17.8,30.34,North,360,0.0,0.0,72,0.00,CLR,,0.00,WeatherDisplay:10.37,2013-02-02 08:06:00,
2013-02-02 03:11:00,25.5,17.7,30.34,North,360,0.0,0.0,72,0.00,CLR,,0.00,WeatherDisplay:10.37,2013-02-02 08:11:00,
2013-02-02 03:16:00,25.4,17.6,30.34,North,360,0.0,0.0,72,0.00,CLR,,0.00,WeatherDisplay:10.37,2013-02-02 08:16:00,
2013-02-02 03:21:00,25.3,17.5,30.34,North,360,0.0,0.0,72,0.00,CLR,,0.00,WeatherDisplay:10.37,2013-02-02 08:21:00,
2013-02-02 03:26:00,25.1,17.3,30.34,North,360,0.0,0.0,72,0.00,CLR,,0.00,WeatherDisplay:10.37,2013-02-02 08:26:00,
2013-02-02 03:31:00,24.9,17.5,30.35,North,360,0.0,0.0,73,0.00,CLR,,0.00,WeatherDisplay:10.37,2013-02-02 08:31:00,
2013-02-02 03:36:00,24.7,17.3,30.34,North,360,0.0,0.0,73,0.00,CLR,,0.00,WeatherDisplay:10.37,2013-02-02 08:36:00,
2013-02-02 03:41:00,24.5,17.1,30.34,North,360,0.0,0.0,73,0.00,CLR,,0.00,WeatherDisplay:10.37,2013-02-02 08:41:00,
2013-02-02 03:46:00,24.4,17.0,30.34,North,360,0.0,0.0,73,0.00,CLR,,0.00,WeatherDisplay:10.37,2013-02-02 08:46:00,
2013-02-02 03:51:00,24.2,16.8,30.34,North,360,0.0,0.0,73,0.00,CLR,,0.00,WeatherDisplay:10.37,2013-02-02 08:51:00,
2013-02-02 03:56:00,24.2,17.1,30.34,North,360,0.0,0.0,74,0.00,CLR,,0.00,WeatherDisplay:10.37,2013-02-02 08:56:00,
2013-02-02 04:01:00,24.3,17.2,30.34,North,360,0.0,0.0,74,0.00,CLR,,0.00,WeatherDisplay:10.37,2013-02-02 09:01:00,
2013-02-02 04:06:00,24.3,17.2,30.34,North,360,0.0,0.0,74,0.00,CLR,,0.00,WeatherDisplay:10.37,2013-02-02 09:06:00,
2013-02-02 04:11:00,24.4,17.3,30.34,North,360,0.0,0.0,74,0.00,CLR,,0.00,WeatherDisplay:10.37,2013-02-02 09:11:00,
2013-02-02 04:16:00,24.4,17.3,30.34,North,360,0.0,0.0,74,0.00,CLR,,0.00,WeatherDisplay:10.37,2013-02-02 09:16:00,
2013-02-02 04:21:00,24.4,17.0,30.34,North,360,0.0,0.0,73,0.00,CLR,,0.00,WeatherDisplay:10.37,2013-02-02 09:21:00,
2013-02-02 04:26:00,24.5,16.8,30.33,North,360,0.0,0.0,72,0.00,CLR,,0.00,WeatherDisplay:10.37,2013-02-02 09:26:00,
2013-02-02 04:31:00,24.3,16.2,30.33,North,360,0.0,0.0,71,0.00,CLR,,0.00,WeatherDisplay:10.37,2013-02-02 09:31:00,
2013-02-02 04:36:00,24.4,16.7,30.33,North,360,0.0,0.0,72,0.00,CLR,,0.00,WeatherDisplay:10.37,2013-02-02 09:36:00,
2013-02-02 04:41:00,24.3,16.6,30.33,North,360,0.0,0.0,72,0.00,CLR,,0.00,WeatherDisplay:10.37,2013-02-02 09:41:00,
2013-02-02 04:46:00,24.3,16.6,30.33,North,360,0.0,0.0,72,0.00,CLR,,0.00,WeatherDisplay:10.37,2013-02-02 09:46:00,
2013-02-02 04:51:00,24.2,16.1,30.33,North,360,0.0,0.0,71,0.00,CLR,,0.00,WeatherDisplay:10.37,2013-02-02 09:51:00,
2013-02-02 04:56:00,24.0,16.0,30.33,North,360,0.0,0.0,71,0.00,CLR,,0.00,WeatherDisplay:10.37,2013-02-02 09:56:00,
2013-02-02 05:01:00,23.9,15.9,30.33,North,360,0.0,0.0,71,0.00,CLR,,0.00,WeatherDisplay:10.37,2013-02-02 10:01:00,
2013-02-02 05:06:00,23.8,16.1,30.34,North,360,0.0,0.0,72,0.00,CLR,,0.00,WeatherDisplay:10.37,2013-02-02 10:06:00,
2013-02-02 05:11:00,23.6,16.2,30.34,North,360,0.0,0.0,73,0.00,CLR,,0.00,WeatherDisplay:10.37,2013-02-02 10:11:00,
2013-02-02 05:16:00,23.4,16.3,30.34,North,360,0.0,0.0,74,0.00,CLR,,0.00,WeatherDisplay:10.37,2013-02-02 10:16:00,
2013-02-02 05:21:00,23.3,16.2,30.34,North,360,0.0,0.0,74,0.00,CLR,,0.00,WeatherDisplay:10.37,2013-02-02 10:21:00,
2013-02-02 05:26:00,23.4,16.6,30.34,North,360,0.0,0.0,75,0.00,CLR,,0.00,WeatherDisplay:10.37,2013-02-02 10:26:00,
2013-02-02 05:31:00,23.3,16.5,30.34,North,360,0.0,0.0,75,0.00,CLR,,0.00,WeatherDisplay:10.37,2013-02-02 10:31:00,
2013-02-02 05:36:00,23.2,16.4,30.34,North,360,0.0,0.0,75,0.00,CLR,,0.00,WeatherDisplay:10.37,2013-02-02 10:36:00,
2013-02-02 05:41:00,23.1,16.4,30.34,North,360,0.0,0.0,75,0.00,CLR,,0.00,WeatherDisplay:10.37,2013-02-02 10:41:00,
2013-02-02 05:46:00,23.0,16.6,30.34,North,360,0.0,0.0,76,0.00,CLR,,0.00,WeatherDisplay:10.37,2013-02-02 10:46:00,
2013-02-02 05:51:00,22.8,16.4,30.34,North,360,0.0,0.0,76,0.00,CLR,,0.00,WeatherDisplay:10.37,2013-02-02 10:51:00,
2013-02-02 05:56:00,22.8,16.7,30.34,North,360,0.0,0.0,77,0.00,CLR,,0.00,WeatherDisplay:10.37,2013-02-02 10:56:00,
2013-02-02 06:01:00,22.8,16.7,30.33,North,360,0.0,0.0,77,0.00,CLR,,0.00,WeatherDisplay:10.37,2013-02-02 11:01:00,
2013-02-02 06:06:00,22.7,16.6,30.34,North,360,0.0,0.0,77,0.00,CLR,,0.00,WeatherDisplay:10.37,2013-02-02 11:06:00,
2013-02-02 06:11:00,22.6,16.8,30.34,North,360,0.0,0.0,78,0.00,CLR,,0.00,WeatherDisplay:10.37,2013-02-02 11:11:00,
2013-02-02 06:16:00,22.5,16.7,30.34,North,360,0.0,0.0,78,0.00,CLR,,0.00,WeatherDisplay:10.37,2013-02-02 11:16:00,
2013-02-02 06:21:00,22.4,16.6,30.34,North,360,0.0,0.0,78,0.00,CLR,,0.00,WeatherDisplay:10.37,2013-02-02 11:21:00,
2013-02-02 06:26:00,22.5,16.7,30.34,North,360,0.0,0.0,78,0.00,CLR,,0.00,WeatherDisplay:10.37,2013-02-02 11:26:00,
2013-02-02 06:31:00,22.5,17.0,30.34,North,360,0.0,0.0,79,0.00,CLR,,0.00,WeatherDisplay:10.37,2013-02-02 11:31:00,
2013-02-02 06:36:00,22.4,16.9,30.34,North,360,0.0,0.0,79,0.00,CLR,,0.00,WeatherDisplay:10.37,2013-02-02 11:36:00,
2013-02-02 06:41:00,22.3,16.8,30.34,North,360,0.0,0.0,79,0.00,CLR,,0.00,WeatherDisplay:10.37,2013-02-02 11:41:00,
2013-02-02 06:46:00,22.2,16.7,30.33,North,360,0.0,0.0,79,0.00,CLR,,0.00,WeatherDisplay:10.37,2013-02-02 11:46:00,
2013-02-02 06:51:00,22.1,16.6,30.33,North,360,0.0,0.0,79,0.00,CLR,,0.00,WeatherDisplay:10.37,2013-02-02 11:51:00,
2013-02-02 06:56:00,22.1,16.9,30.33,North,360,0.0,0.0,80,0.00,CLR,,0.00,WeatherDisplay:10.37,2013-02-02 11:56:00,
2013-02-02 07:01:00,22.1,16.9,30.34,North,360,0.0,0.0,80,0.00,CLR,,0.00,WeatherDisplay:10.37,2013-02-02 12:01:00,
2013-02-02 07:06:00,22.1,16.9,30.34,North,360,0.0,0.0,80,0.00,CLR,,0.00,WeatherDisplay:10.37,2013-02-02 12:06:00,
2013-02-02 07:11:00,22.1,16.9,30.34,North,360,0.0,0.0,80,0.00,CLR,,0.00,WeatherDisplay:10.37,2013-02-02 12:11:00,
2013-02-02 07:16:00,22.1,16.9,30.33,North,360,0.0,0.0,80,0.00,CLR,,0.00,WeatherDisplay:10.37,2013-02-02 12:16:00,
2013-02-02 07:21:00,22.0,16.8,30.33,North,360,0.0,0.0,80,0.00,CLR,,0.00,WeatherDisplay:10.37,2013-02-02 12:21:00,
2013-02-02 07:26:00,22.1,17.2,30.33,North,360,0.0,0.0,81,0.00,CLR,,0.00,WeatherDisplay:10.37,2013-02-02 12:26:00,
2013-02-02 07:31:00,22.2,17.3,30.34,North,360,0.0,0.0,81,0.00,CLR,,0.00,WeatherDisplay:10.37,2013-02-02 12:31:00,
2013-02-02 07:36:00,22.3,17.4,30.34,North,360,0.0,0.0,81,0.00,CLR,,0.00,WeatherDisplay:10.37,2013-02-02 12:36:00,
2013-02-02 07:41:00,22.4,17.5,30.34,North,360,0.0,0.0,81,0.00,CLR,,0.00,WeatherDisplay:10.37,2013-02-02 12:41:00,
2013-02-02 07:46:00,22.5,17.5,30.35,North,360,0.0,0.0,81,0.00,CLR,,0.00,WeatherDisplay:10.37,2013-02-02 12:46:00,
2013-02-02 07:51:00,22.7,18.0,30.35,North,360,0.0,0.0,82,0.00,CLR,,0.00,WeatherDisplay:10.37,2013-02-02 12:51:00,
2013-02-02 07:56:00,23.0,18.3,30.35,North,360,0.0,0.0,82,0.00,CLR,,0.00,WeatherDisplay:10.37,2013-02-02 12:56:00,
2013-02-02 08:01:00,23.4,18.7,30.35,North,360,0.0,0.0,82,0.00,CLR,,0.00,WeatherDisplay:10.37,2013-02-02 13:01:00,
2013-02-02 08:06:00,24.1,19.4,30.35,North,360,0.0,0.0,82,0.00,CLR,,0.00,WeatherDisplay:10.37,2013-02-02 13:06:00,
2013-02-02 08:11:00,24.8,19.8,30.35,North,360,0.0,0.0,81,0.00,CLR,,0.00,WeatherDisplay:10.37,2013-02-02 13:11:00,
2013-02-02 08:16:00,25.8,21.1,30.35,North,360,0.0,0.0,82,0.00,CLR,,0.00,WeatherDisplay:10.37,2013-02-02 13:16:00,
2013-02-02 08:21:00,25.9,20.6,30.35,North,360,0.0,0.0,80,0.00,CLR,,0.00,WeatherDisplay:10.37,2013-02-02 13:21:00,
2013-02-02 08:26:00,26.3,21.0,30.35,WSW,250,0.0,0.0,80,0.00,CLR,,0.00,WeatherDisplay:10.37,2013-02-02 13:26:00,
2013-02-02 08:31:00,26.9,21.0,30.35,WSW,249,0.0,0.0,78,0.00,CLR,,0.00,WeatherDisplay:10.37,2013-02-02 13:31:00,
2013-02-02 08:36:00,27.5,20.9,30.35,WSW,249,0.0,0.0,76,0.00,CLR,,0.00,WeatherDisplay:10.37,2013-02-02 13:36:00,
2013-02-02 08:41:00,27.9,20.7,30.35,North,360,0.0,0.0,74,0.00,CLR,,0.00,WeatherDisplay:10.37,2013-02-02 13:41:00,
2013-02-02 08:46:00,28.5,20.3,30.36,North,360,0.0,0.0,71,0.00,CLR,,0.00,WeatherDisplay:10.37,2013-02-02 13:46:00,
2013-02-02 08:51:00,28.8,19.9,30.36,North,360,0.0,0.0,69,0.00,CLR,,0.00,WeatherDisplay:10.37,2013-02-02 13:51:00,
2013-02-02 08:56:00,29.1,19.8,30.35,North,360,0.0,0.0,68,0.00,CLR,,0.00,WeatherDisplay:10.37,2013-02-02 13:56:00,
2013-02-02 09:01:00,29.6,20.0,30.35,North,360,0.0,0.0,67,0.00,CLR,,0.00,WeatherDisplay:10.37,2013-02-02 14:01:00,
2013-02-02 09:06:00,30.1,20.5,30.35,North,360,0.0,0.0,67,0.00,CLR,,0.00,WeatherDisplay:10.37,2013-02-02 14:06:00,
2013-02-02 09:11:00,30.8,20.8,30.35,North,360,0.0,0.0,66,0.00,CLR,,0.00,WeatherDisplay:10.37,2013-02-02 14:11:00,
2013-02-02 09:16:00,31.3,20.9,30.35,North,360,0.0,0.0,65,0.00,CLR,,0.00,WeatherDisplay:10.37,2013-02-02 14:16:00,
2013-02-02 09:21:00,31.7,20.9,30.35,North,360,0.0,0.0,64,0.00,CLR,,0.00,WeatherDisplay:10.37,2013-02-02 14:21:00,
2013-02-02 09:26:00,32.3,21.1,30.34,North,360,0.0,0.0,63,0.00,CLR,,0.00,WeatherDisplay:10.37,2013-02-02 14:26:00,
2013-02-02 09:31:00,32.9,21.7,30.35,North,360,0.0,0.0,63,0.00,CLR,,0.00,WeatherDisplay:10.37,2013-02-02 14:31:00,
2013-02-02 09:36:00,33.6,22.0,30.35,North,360,0.0,0.0,62,0.00,CLR,,0.00,WeatherDisplay:10.37,2013-02-02 14:36:00,
2013-02-02 09:41:00,34.4,22.3,30.34,North,360,0.0,0.0,61,0.00,CLR,,0.00,WeatherDisplay:10.37,2013-02-02 14:41:00,
2013-02-02 09:46:00,35.4,22.1,30.34,North,360,0.0,0.0,58,0.00,CLR,,0.00,WeatherDisplay:10.37,2013-02-02 14:46:00,
2013-02-02 09:51:00,36.9,21.8,30.33,North,360,0.0,0.0,54,0.00,CLR,,0.00,WeatherDisplay:10.37,2013-02-02 14:51:00,
2013-02-02 09:56:00,39.6,21.5,30.33,North,360,0.0,0.0,48,0.00,CLR,,0.00,WeatherDisplay:10.37,2013-02-02 14:56:00,
2013-02-02 10:01:00,40.8,22.1,30.33,North,360,0.0,0.0,47,0.00,CLR,,0.00,WeatherDisplay:10.37,2013-02-02 15:01:00,
2013-02-02 10:06:00,41.6,20.7,30.33,North,360,3.5,3.5,43,0.00,CLR,,0.00,WeatherDisplay:10.37,2013-02-02 15:06:00,
2013-02-02 10:11:00,41.2,17.5,30.33,North,360,3.5,3.5,38,0.00,CLR,,0.00,WeatherDisplay:10.37,2013-02-02 15:11:00,
2013-02-02 10:16:00,41.6,20.2,30.33,North,360,5.8,5.8,42,0.00,CLR,,0.00,WeatherDisplay:10.37,2013-02-02 15:16:00,
2013-02-02 10:21:00,41.3,19.9,30.33,North,360,3.0,0.0,42,0.00,CLR,,0.00,WeatherDisplay:10.37,2013-02-02 15:21:00,
2013-02-02 10:26:00,41.9,20.4,30.32,ESE,107,4.6,4.6,42,0.00,CLR,,0.00,WeatherDisplay:10.37,2013-02-02 15:26:00,
2013-02-02 10:31:00,42.4,18.6,30.32,ESE,109,3.5,3.5,38,0.00,CLR,,0.00,WeatherDisplay:10.37,2013-02-02 15:31:00,
2013-02-02 10:36:00,42.2,18.4,30.32,North,360,5.8,5.8,38,0.00,CLR,,0.00,WeatherDisplay:10.37,2013-02-02 15:36:00,
2013-02-02 10:41:00,42.8,18.9,30.32,North,360,3.5,3.5,38,0.00,CLR,,0.00,WeatherDisplay:10.37,2013-02-02 15:41:00,
2013-02-02 10:46:00,43.7,20.3,30.32,North,360,0.0,0.0,39,0.00,CLR,,0.00,WeatherDisplay:10.37,2013-02-02 15:46:00,
2013-02-02 10:51:00,44.0,18.1,30.32,North,360,0.0,0.0,35,0.00,CLR,,0.00,WeatherDisplay:10.37,2013-02-02 15:51:00,
2013-02-02 10:57:00,44.2,21.4,30.32,North,360,2.3,0.0,40,0.00,CLR,,0.00,WeatherDisplay:10.37,2013-02-02 15:57:00,
2013-02-02 11:02:00,45.0,16.9,30.32,North,360,0.0,0.0,32,0.00,CLR,,0.00,WeatherDisplay:10.37,2013-02-02 16:02:00,
2013-02-02 11:07:00,45.7,18.2,30.31,ESE,107,3.5,3.5,33,0.00,CLR,,0.00,WeatherDisplay:10.37,2013-02-02 16:07:00,
2013-02-02 11:12:00,45.3,19.2,30.31,North,360,2.3,2.3,35,0.00,CLR,,0.00,WeatherDisplay:10.37,2013-02-02 16:12:00,
2013-02-02 11:17:00,45.4,17.9,30.31,North,360,0.0,0.0,33,0.00,CLR,,0.00,WeatherDisplay:10.37,2013-02-02 16:17:00,
2013-02-02 11:22:00,46.4,18.8,30.31,North,360,2.3,2.3,33,0.00,CLR,,0.00,WeatherDisplay:10.37,2013-02-02 16:22:00,
2013-02-02 11:27:00,46.9,17.8,30.30,North,360,3.5,3.5,31,0.00,CLR,,0.00,WeatherDisplay:10.37,2013-02-02 16:27:00,
2013-02-02 11:32:00,47.6,19.9,30.30,North,360,0.0,0.0,33,0.00,CLR,,0.00,WeatherDisplay:10.37,2013-02-02 16:32:00,
2013-02-02 11:37:00,47.7,17.7,30.30,North,360,0.0,0.0,30,0.00,CLR,,0.00,WeatherDisplay:10.37,2013-02-02 16:37:00,
2013-02-02 11:42:00,47.8,17.8,30.29,North,360,3.5,3.5,30,0.00,CLR,,0.00,WeatherDisplay:10.37,2013-02-02 16:42:00,
2013-02-02 11:47:00,47.1,17.2,30.29,North,360,0.0,0.0,30,0.00,CLR,,0.00,WeatherDisplay:10.37,2013-02-02 16:47:00,
2013-02-02 11:52:00,46.9,16.3,30.29,North,360,3.0,3.0,29,0.00,CLR,,0.00,WeatherDisplay:10.37,2013-02-02 16:52:00,
2013-02-02 11:57:00,47.3,17.4,30.28,North,360,0.0,0.0,30,0.00,CLR,,0.00,WeatherDisplay:10.37,2013-02-02 16:57:00,
2013-02-02 12:02:00,48.1,16.5,30.28,North,360,2.3,2.3,28,0.00,CLR,,0.00,WeatherDisplay:10.37,2013-02-02 17:02:00,
2013-02-02 12:07:00,47.7,16.9,30.27,North,360,0.0,0.0,29,0.00,CLR,,0.00,WeatherDisplay:10.37,2013-02-02 17:07:00,
2013-02-02 12:12:00,47.9,17.1,30.27,North,360,2.0,0.0,29,0.00,CLR,,0.00,WeatherDisplay:10.37,2013-02-02 17:12:00,
2013-02-02 12:17:00,48.9,16.3,30.26,North,360,0.0,0.0,27,0.00,CLR,,0.00,WeatherDisplay:10.37,2013-02-02 17:17:00,
2013-02-02 12:22:00,48.7,15.3,30.26,North,360,0.0,0.0,26,0.00,CLR,,0.00,WeatherDisplay:10.37,2013-02-02 17:22:00,
2013-02-02 12:27:00,49.0,17.3,30.25,North,360,0.0,0.0,28,0.00,CLR,,0.00,WeatherDisplay:10.37,2013-02-02 17:27:00,
2013-02-02 12:32:00,49.6,16.1,30.25,North,360,1.2,0.0,26,0.00,CLR,,0.00,WeatherDisplay:10.37,2013-02-02 17:32:00,
2013-02-02 12:37:00,50.4,16.8,30.24,North,360,0.0,0.0,26,0.00,CLR,,0.00,WeatherDisplay:10.37,2013-02-02 17:37:00,
2013-02-02 12:42:00,50.3,15.8,30.24,SW,233,3.5,3.5,25,0.00,CLR,,0.00,WeatherDisplay:10.37,2013-02-02 17:42:00,
2013-02-02 12:47:00,50.1,16.5,30.24,North,360,2.3,2.3,26,0.00,CLR,,0.00,WeatherDisplay:10.37,2013-02-02 17:47:00,
2013-02-02 12:52:00,50.5,15.0,30.23,North,360,6.9,6.9,24,0.00,CLR,,0.00,WeatherDisplay:10.37,2013-02-02 17:52:00,
2013-02-02 12:57:00,50.6,15.1,30.23,SW,218,0.0,0.0,24,0.00,CLR,,0.00,WeatherDisplay:10.37,2013-02-02 17:57:00,
2013-02-02 13:02:00,50.8,16.2,30.22,South,182,0.0,0.0,25,0.00,CLR,,0.00,WeatherDisplay:10.37,2013-02-02 18:02:00,
2013-02-02 13:07:00,51.2,17.4,30.21,ESE,111,2.3,2.3,26,0.00,CLR,,0.00,WeatherDisplay:10.37,2013-02-02 18:07:00,
2013-02-02 13:12:00,51.4,15.8,30.22,North,360,9.2,9.2,24,0.00,CLR,,0.00,WeatherDisplay:10.37,2013-02-02 18:12:00,
2013-02-02 13:17:00,51.5,17.7,30.21,North,360,3.5,3.5,26,0.00,CLR,,0.00,WeatherDisplay:10.37,2013-02-02 18:17:00,
2013-02-02 13:22:00,51.4,16.7,30.21,North,360,2.3,2.3,25,0.00,CLR,,0.00,WeatherDisplay:10.37,2013-02-02 18:22:00,
2013-02-02 13:27:00,51.4,16.7,30.20,North,360,3.5,3.5,25,0.00,CLR,,0.00,WeatherDisplay:10.37,2013-02-02 18:27:00,
2013-02-02 13:32:00,51.4,16.7,30.20,North,360,1.2,1.2,25,0.00,CLR,,0.00,WeatherDisplay:10.37,2013-02-02 18:32:00,
2013-02-02 13:37:00,51.5,17.7,30.20,North,360,3.5,3.5,26,0.00,CLR,,0.00,WeatherDisplay:10.37,2013-02-02 18:37:00,
2013-02-02 13:42:00,51.9,18.9,30.20,North,360,2.3,2.3,27,0.00,CLR,,0.00,WeatherDisplay:10.37,2013-02-02 18:42:00,
2013-02-02 13:47:00,52.0,17.2,30.20,North,360,0.0,0.0,25,0.00,CLR,,0.00,WeatherDisplay:10.37,2013-02-02 18:47:00,
2013-02-02 13:52:00,52.0,17.2,30.20,North,360,4.6,4.6,25,0.00,CLR,,0.00,WeatherDisplay:10.37,2013-02-02 18:52:00,
2013-02-02 13:57:00,52.2,17.4,30.20,North,360,3.5,3.5,25,0.00,CLR,,0.00,WeatherDisplay:10.37,2013-02-02 18:57:00,
2013-02-02 14:02:00,52.7,17.8,30.19,North,360,0.0,0.0,25,0.00,CLR,,0.00,WeatherDisplay:10.37,2013-02-02 19:02:00,
2013-02-02 14:07:00,53.0,18.1,30.19,North,360,3.0,3.0,25,0.00,CLR,,0.00,WeatherDisplay:10.37,2013-02-02 19:07:00,
2013-02-02 14:12:00,53.1,18.2,30.19,North,360,3.0,3.0,25,0.00,CLR,,0.00,WeatherDisplay:10.37,2013-02-02 19:12:00,
2013-02-02 14:17:00,53.2,19.2,30.19,North,360,4.0,4.0,26,0.00,CLR,,0.00,WeatherDisplay:10.37,2013-02-02 19:17:00,
2013-02-02 14:22:00,53.4,18.4,30.18,North,360,0.0,0.0,25,0.00,CLR,,0.00,WeatherDisplay:10.37,2013-02-02 19:22:00,
2013-02-02 14:27:00,53.7,18.7,30.18,North,360,0.0,0.0,25,0.00,CLR,,0.00,WeatherDisplay:10.37,2013-02-02 19:27:00,
2013-02-02 14:32:00,54.1,18.1,30.18,SW,218,3.5,3.5,24,0.00,CLR,,0.00,WeatherDisplay:10.37,2013-02-02 19:32:00,
2013-02-02 14:37:00,54.4,19.3,30.18,North,360,4.0,4.0,25,0.00,CLR,,0.00,WeatherDisplay:10.37,2013-02-02 19:37:00,
2013-02-02 14:42:00,54.4,18.3,30.18,North,360,3.5,3.5,24,0.00,CLR,,0.00,WeatherDisplay:10.37,2013-02-02 19:42:00,
2013-02-02 14:47:00,54.5,19.3,30.18,North,360,3.5,3.5,25,0.00,CLR,,0.00,WeatherDisplay:10.37,2013-02-02 19:47:00,
2013-02-02 14:52:00,55.0,19.8,30.17,SW,225,0.0,0.0,25,0.00,CLR,,0.00,WeatherDisplay:10.37,2013-02-02 19:52:00,
2013-02-02 14:57:00,55.2,19.0,30.17,North,360,0.0,0.0,24,0.00,CLR,,0.00,WeatherDisplay:10.37,2013-02-02 19:57:00,
2013-02-02 15:02:00,55.5,19.2,30.17,North,360,3.5,3.5,24,0.00,CLR,,0.00,WeatherDisplay:10.37,2013-02-02 20:02:00,
2013-02-02 15:07:00,55.1,19.9,30.17,North,360,5.8,5.8,25,0.00,CLR,,0.00,WeatherDisplay:10.37,2013-02-02 20:07:00,
2013-02-02 15:12:00,55.0,18.8,30.17,North,360,3.5,3.5,24,0.00,CLR,,0.00,WeatherDisplay:10.37,2013-02-02 20:12:00,
2013-02-02 15:17:00,55.4,19.2,30.17,North,360,2.3,2.3,24,0.00,CLR,,0.00,WeatherDisplay:10.37,2013-02-02 20:17:00,
2013-02-02 15:22:00,55.9,21.5,30.16,North,360,0.0,0.0,26,0.00,CLR,,0.00,WeatherDisplay:10.37,2013-02-02 20:22:00,
2013-02-02 15:27:00,56.4,21.0,30.16,North,360,0.0,0.0,25,0.00,CLR,,0.00,WeatherDisplay:10.37,2013-02-02 20:27:00,
2013-02-02 15:32:00,56.6,20.2,30.16,North,360,3.5,3.5,24,0.00,CLR,,0.00,WeatherDisplay:10.37,2013-02-02 20:32:00,
2013-02-02 15:37:00,56.3,19.9,30.16,North,360,4.6,4.6,24,0.00,CLR,,0.00,WeatherDisplay:10.37,2013-02-02 20:37:00,
2013-02-02 15:42:00,56.0,18.7,30.16,North,360,0.0,0.0,23,0.00,CLR,,0.00,WeatherDisplay:10.37,2013-02-02 20:42:00,
2013-02-02 15:47:00,56.5,20.1,30.16,North,360,0.0,0.3,24,0.00,CLR,,0.00,WeatherDisplay:10.37,2013-02-02 20:47:00,
2013-02-02 15:52:00,56.5,20.1,30.16,North,360,0.0,0.0,24,0.00,CLR,,0.00,WeatherDisplay:10.37,2013-02-02 20:52:00,
2013-02-02 15:57:00,56.6,20.2,30.16,North,360,6.0,6.0,24,0.00,CLR,,0.00,WeatherDisplay:10.37,2013-02-02 20:57:00,
2013-02-02 16:02:00,56.4,19.0,30.16,North,360,5.8,5.8,23,0.00,CLR,,0.00,WeatherDisplay:10.37,2013-02-02 21:02:00,
2013-02-02 16:07:00,56.2,19.8,30.16,North,360,1.2,1.2,24,0.00,CLR,,0.00,WeatherDisplay:10.37,2013-02-02 21:07:00,
2013-02-02 16:12:00,55.9,18.6,30.15,North,360,1.2,0.0,23,0.00,CLR,,0.00,WeatherDisplay:10.37,2013-02-02 21:12:00,
2013-02-02 16:17:00,56.0,19.7,30.15,North,360,4.0,4.0,24,0.00,CLR,,0.00,WeatherDisplay:10.37,2013-02-02 21:17:00,
2013-02-02 16:22:00,56.1,22.5,30.15,South,182,0.0,0.0,27,0.00,CLR,,0.00,WeatherDisplay:10.37,2013-02-02 21:22:00,
2013-02-02 16:27:00,56.6,20.2,30.14,North,360,0.0,0.0,24,0.00,CLR,,0.00,WeatherDisplay:10.37,2013-02-02 21:27:00,
2013-02-02 16:32:00,57.1,19.6,30.14,North,360,2.3,2.3,23,0.00,CLR,,0.00,WeatherDisplay:10.37,2013-02-02 21:32:00,
2013-02-02 16:37:00,57.4,20.9,30.14,North,360,0.0,0.0,24,0.00,CLR,,0.00,WeatherDisplay:10.37,2013-02-02 21:37:00,
2013-02-02 16:42:00,57.7,21.1,30.13,North,360,0.0,0.0,24,0.00,CLR,,0.00,WeatherDisplay:10.37,2013-02-02 21:42:00,
2013-02-02 16:47:00,57.9,20.3,30.13,North,360,0.0,0.0,23,0.00,CLR,,0.00,WeatherDisplay:10.37,2013-02-02 21:47:00,
2013-02-02 16:52:00,57.6,21.0,30.13,North,360,2.3,2.3,24,0.00,CLR,,0.00,WeatherDisplay:10.37,2013-02-02 21:52:00,
2013-02-02 16:57:00,56.9,22.3,30.13,North,360,0.0,0.0,26,0.00,CLR,,0.00,WeatherDisplay:10.37,2013-02-02 21:57:00,
2013-02-02 17:02:00,56.7,22.2,30.13,North,360,0.0,0.0,26,0.00,CLR,,0.00,WeatherDisplay:10.37,2013-02-02 22:02:00,
2013-02-02 17:07:00,56.9,20.4,30.12,North,360,2.3,2.3,24,0.00,CLR,,0.00,WeatherDisplay:10.37,2013-02-02 22:07:00,
2013-02-02 17:12:00,56.7,21.2,30.12,North,360,0.0,0.0,25,0.00,CLR,,0.00,WeatherDisplay:10.37,2013-02-02 22:12:00,
2013-02-02 17:17:00,56.3,20.9,30.12,North,360,0.0,0.0,25,0.00,CLR,,0.00,WeatherDisplay:10.37,2013-02-02 22:17:00,
2013-02-02 17:22:00,55.9,20.5,30.12,North,360,0.0,0.0,25,0.00,CLR,,0.00,WeatherDisplay:10.37,2013-02-02 22:22:00,
2013-02-02 17:27:00,55.4,21.0,30.12,North,360,0.0,0.2,26,0.00,CLR,,0.00,WeatherDisplay:10.37,2013-02-02 22:27:00,
2013-02-02 17:32:00,54.8,19.6,30.12,North,360,0.0,0.0,25,0.00,CLR,,0.00,WeatherDisplay:10.37,2013-02-02 22:32:00,
2013-02-02 17:37:00,54.2,21.8,30.12,North,360,0.0,0.0,28,0.00,CLR,,0.00,WeatherDisplay:10.37,2013-02-02 22:37:00,
2013-02-02 17:42:00,53.6,20.4,30.12,North,360,0.0,0.0,27,0.00,CLR,,0.00,WeatherDisplay:10.37,2013-02-02 22:42:00,
2013-02-02 17:47:00,53.0,19.9,30.11,North,360,0.0,0.0,27,0.00,CLR,,0.00,WeatherDisplay:10.37,2013-02-02 22:47:00,
2013-02-02 17:52:00,52.2,21.7,30.11,North,360,0.0,0.0,30,0.00,CLR,,0.00,WeatherDisplay:10.37,2013-02-02 22:52:00,
2013-02-02 17:57:00,51.5,21.8,30.11,North,360,0.0,0.0,31,0.00,CLR,,0.00,WeatherDisplay:10.37,2013-02-02 22:57:00,
2013-02-02 18:02:00,51.0,21.4,30.11,North,360,0.0,0.0,31,0.00,CLR,,0.00,WeatherDisplay:10.37,2013-02-02 23:02:00,
2013-02-02 18:07:00,50.4,22.3,30.11,North,360,0.0,0.0,33,0.00,CLR,,0.00,WeatherDisplay:10.37,2013-02-02 23:07:00,
2013-02-02 18:12:00,49.5,23.6,30.11,North,360,0.0,0.0,36,0.00,CLR,,0.00,WeatherDisplay:10.37,2013-02-02 23:12:00,
2013-02-02 18:17:00,48.8,23.6,30.10,North,360,0.0,0.0,37,0.00,CLR,,0.00,WeatherDisplay:10.37,2013-02-02 23:17:00,
2013-02-02 18:22:00,48.1,24.3,30.10,North,360,0.0,0.0,39,0.00,CLR,,0.00,WeatherDisplay:10.37,2013-02-02 23:22:00,
2013-02-02 18:27:00,47.4,23.7,30.10,North,360,0.0,0.0,39,0.00,CLR,,0.00,WeatherDisplay:10.37,2013-02-02 23:27:00,
2013-02-02 18:32:00,46.9,23.2,30.10,North,360,0.0,0.0,39,0.00,CLR,,0.00,WeatherDisplay:10.37,2013-02-02 23:32:00,
2013-02-02 18:37:00,46.4,23.9,30.10,North,360,0.0,0.0,41,0.00,CLR,,0.00,WeatherDisplay:10.37,2013-02-02 23:37:00,
2013-02-02 18:42:00,46.0,23.6,30.10,North,360,0.0,0.0,41,0.00,CLR,,0.00,WeatherDisplay:10.37,2013-02-02 23:42:00,
2013-02-02 18:47:00,45.6,24.9,30.10,North,360,0.0,0.0,44,0.00,CLR,,0.00,WeatherDisplay:10.37,2013-02-02 23:47:00,
2013-02-02 18:52:00,45.2,24.0,30.10,North,360,0.0,0.0,43,0.00,CLR,,0.00,WeatherDisplay:10.37,2013-02-02 23:52:00,
2013-02-02 18:57:00,44.9,24.3,30.10,North,360,0.0,0.0,44,0.00,CLR,,0.00,WeatherDisplay:10.37,2013-02-02 23:57:00,
2013-02-02 19:02:00,44.5,25.0,30.10,North,360,0.0,0.0,46,0.00,CLR,,0.00,WeatherDisplay:10.37,2013-02-03 00:02:00,
2013-02-02 19:07:00,44.2,24.2,30.10,North,360,0.0,0.0,45,0.00,CLR,,0.00,WeatherDisplay:10.37,2013-02-03 00:07:00,
2013-02-02 19:12:00,44.0,23.5,30.10,North,360,0.0,0.0,44,0.00,CLR,,0.00,WeatherDisplay:10.37,2013-02-03 00:12:00,
2013-02-02 19:17:00,43.9,23.4,30.12,North,360,0.0,0.0,44,0.00,CLR,,0.00,WeatherDisplay:10.37,2013-02-03 00:17:00,
2013-02-02 19:22:00,43.9,23.4,30.12,North,360,0.0,0.0,44,0.00,CLR,,0.00,WeatherDisplay:10.37,2013-02-03 00:22:00,
2013-02-02 19:27:00,44.1,25.1,30.12,North,360,0.0,0.0,47,0.00,CLR,,0.00,WeatherDisplay:10.37,2013-02-03 00:27:00,
2013-02-02 19:32:00,44.2,25.2,30.12,North,360,0.0,0.0,47,0.00,CLR,,0.00,WeatherDisplay:10.37,2013-02-03 00:32:00,
2013-02-02 19:37:00,44.2,24.7,30.12,North,360,0.0,0.0,46,0.00,CLR,,0.00,WeatherDisplay:10.37,2013-02-03 00:37:00,
2013-02-02 19:42:00,44.2,26.2,30.12,North,360,0.0,0.0,49,0.00,CLR,,0.00,WeatherDisplay:10.37,2013-02-03 00:42:00,
2013-02-02 19:47:00,44.3,24.8,30.11,North,360,0.0,0.0,46,0.00,CLR,,0.00,WeatherDisplay:10.37,2013-02-03 00:47:00,
2013-02-02 19:52:00,44.3,23.7,30.12,North,360,0.0,0.0,44,0.00,CLR,,0.00,WeatherDisplay:10.37,2013-02-03 00:52:00,
2013-02-02 19:57:00,44.4,24.4,30.13,North,360,0.0,0.0,45,0.00,CLR,,0.00,WeatherDisplay:10.37,2013-02-03 00:57:00,
2013-02-02 20:02:00,44.5,25.0,30.13,North,360,0.0,0.0,46,0.00,CLR,,0.00,WeatherDisplay:10.37,2013-02-03 01:02:00,
2013-02-02 20:07:00,44.7,25.2,30.13,North,360,0.0,0.0,46,0.00,CLR,,0.00,WeatherDisplay:10.37,2013-02-03 01:07:00,
2013-02-02 20:12:00,44.7,25.7,30.14,North,360,0.0,0.0,47,0.00,CLR,,0.00,WeatherDisplay:10.37,2013-02-03 01:12:00,
2013-02-02 20:17:00,44.7,25.7,30.14,North,360,0.0,0.0,47,0.00,CLR,,0.00,WeatherDisplay:10.37,2013-02-03 01:17:00,
2013-02-02 20:22:00,44.7,26.2,30.13,North,360,0.0,0.0,48,0.00,CLR,,0.00,WeatherDisplay:10.37,2013-02-03 01:22:00,
2013-02-02 20:27:00,44.7,26.2,30.14,North,360,0.0,0.0,48,0.00,CLR,,0.00,WeatherDisplay:10.37,2013-02-03 01:27:00,
2013-02-02 20:32:00,44.8,26.3,30.14,North,360,0.0,0.0,48,0.00,CLR,,0.00,WeatherDisplay:10.37,2013-02-03 01:32:00,
2013-02-02 20:37:00,45.0,26.0,30.14,North,360,0.0,0.0,47,0.00,CLR,,0.00,WeatherDisplay:10.37,2013-02-03 01:37:00,
2013-02-02 20:42:00,45.4,26.8,30.14,North,360,0.0,0.0,48,0.00,CLR,,0.00,WeatherDisplay:10.37,2013-02-03 01:42:00,
2013-02-02 20:47:00,45.6,27.0,30.13,North,360,0.0,0.0,48,0.00,CLR,,0.00,WeatherDisplay:10.37,2013-02-03 01:47:00,
2013-02-02 20:52:00,45.8,26.2,30.14,North,360,0.0,0.0,46,0.00,CLR,,0.00,WeatherDisplay:10.37,2013-02-03 01:52:00,
2013-02-02 20:57:00,45.9,25.7,30.14,North,360,0.0,0.0,45,0.00,CLR,,0.00,WeatherDisplay:10.37,2013-02-03 01:57:00,
2013-02-02 21:02:00,46.3,25.6,30.14,North,360,3.5,3.5,44,0.00,CLR,,0.00,WeatherDisplay:10.37,2013-02-03 02:02:00,
2013-02-02 21:07:00,47.1,25.2,30.14,North,360,3.5,3.5,42,0.00,CLR,,0.00,WeatherDisplay:10.37,2013-02-03 02:07:00,
2013-02-02 21:13:00,48.1,26.6,30.14,North,360,9.2,9.2,43,0.00,CLR,,0.00,WeatherDisplay:10.37,2013-02-03 02:13:00,
2013-02-02 21:18:00,48.8,28.9,30.14,North,360,3.5,3.5,46,0.00,CLR,,0.00,WeatherDisplay:10.37,2013-02-03 02:18:00,
2013-02-02 21:23:00,48.7,31.4,30.15,North,360,9.2,9.2,51,0.00,CLR,,0.00,WeatherDisplay:10.37,2013-02-03 02:23:00,
2013-02-02 21:28:00,48.2,33.2,30.15,North,360,16.0,16.0,56,0.00,CLR,,0.00,WeatherDisplay:10.37,2013-02-03 02:28:00,
2013-02-02 21:33:00,47.8,34.2,30.14,North,360,3.5,3.5,59,0.00,CLR,,0.00,WeatherDisplay:10.37,2013-02-03 02:33:00,
2013-02-02 21:38:00,47.6,34.4,30.14,North,360,11.5,11.5,60,0.00,CLR,,0.00,WeatherDisplay:10.37,2013-02-03 02:38:00,
2013-02-02 21:43:00,47.7,34.9,30.14,North,360,5.8,5.8,61,0.00,CLR,,0.00,WeatherDisplay:10.37,2013-02-03 02:43:00,
2013-02-02 21:48:00,47.5,35.5,30.14,North,360,5.8,5.8,63,0.00,CLR,,0.00,WeatherDisplay:10.37,2013-02-03 02:48:00,
2013-02-02 21:53:00,47.3,35.3,30.13,North,360,2.0,2.0,63,0.00,CLR,,0.00,WeatherDisplay:10.37,2013-02-03 02:53:00,
2013-02-02 21:58:00,47.1,35.5,30.13,SSW,210,6.9,6.9,64,0.00,CLR,,0.00,WeatherDisplay:10.37,2013-02-03 02:58:00,
2013-02-02 22:03:00,46.9,35.7,30.13,North,360,0.0,0.0,65,0.00,CLR,,0.00,WeatherDisplay:10.37,2013-02-03 03:03:00,
2013-02-02 22:08:00,46.6,35.5,30.12,North,360,0.0,0.0,65,0.00,CLR,,0.00,WeatherDisplay:10.37,2013-02-03 03:08:00,
2013-02-02 22:13:00,46.4,36.0,30.12,North,360,0.0,0.0,67,0.00,CLR,,0.00,WeatherDisplay:10.37,2013-02-03 03:13:00,
2013-02-02 22:18:00,46.2,35.8,30.11,North,360,0.0,0.0,67,0.00,CLR,,0.00,WeatherDisplay:10.37,2013-02-03 03:18:00,
2013-02-02 22:23:00,46.0,36.0,30.11,North,360,0.0,0.0,68,0.00,CLR,,0.00,WeatherDisplay:10.37,2013-02-03 03:23:00,
2013-02-02 22:28:00,45.9,36.3,30.11,North,360,0.0,0.0,69,0.00,CLR,,0.00,WeatherDisplay:10.37,2013-02-03 03:28:00,
2013-02-02 22:33:00,45.8,36.6,30.10,North,360,0.0,0.0,70,0.00,CLR,,0.00,WeatherDisplay:10.37,2013-02-03 03:33:00,
2013-02-02 22:38:00,45.6,36.4,30.10,North,360,0.0,0.0,70,0.00,CLR,,0.00,WeatherDisplay:10.37,2013-02-03 03:38:00,
2013-02-02 22:43:00,45.5,36.6,30.11,North,360,0.0,0.0,71,0.00,CLR,,0.00,WeatherDisplay:10.37,2013-02-03 03:43:00,
2013-02-02 22:48:00,45.4,36.5,30.10,North,360,0.0,0.0,71,0.00,CLR,,0.00,WeatherDisplay:10.37,2013-02-03 03:48:00,
2013-02-02 22:53:00,45.4,36.5,30.10,North,360,0.0,0.0,71,0.00,CLR,,0.00,WeatherDisplay:10.37,2013-02-03 03:53:00,
2013-02-02 22:58:00,45.3,36.8,30.10,North,360,0.0,0.0,72,0.00,CLR,,0.00,WeatherDisplay:10.37,2013-02-03 03:58:00,
2013-02-02 23:03:00,45.1,36.6,30.11,North,360,0.0,0.0,72,0.00,CLR,,0.00,WeatherDisplay:10.37,2013-02-03 04:03:00,
2013-02-02 23:08:00,45.0,36.9,30.11,North,360,0.0,0.0,73,0.00,CLR,,0.00,WeatherDisplay:10.37,2013-02-03 04:08:00,
2013-02-02 23:13:00,44.9,36.8,30.10,North,360,0.0,0.0,73,0.00,CLR,,0.00,WeatherDisplay:10.37,2013-02-03 04:13:00,
2013-02-02 23:18:00,44.9,37.1,30.10,North,360,0.0,0.0,74,0.00,CLR,,0.00,WeatherDisplay:10.37,2013-02-03 04:18:00,
2013-02-02 23:23:00,44.8,37.0,30.10,North,360,0.0,0.0,74,0.00,CLR,,0.00,WeatherDisplay:10.37,2013-02-03 04:23:00,
2013-02-02 23:28:00,44.7,37.3,30.10,North,360,0.0,0.0,75,0.00,CLR,,0.00,WeatherDisplay:10.37,2013-02-03 04:28:00,
2013-02-02 23:33:00,44.6,37.2,30.10,North,360,0.0,0.0,75,0.00,CLR,,0.00,WeatherDisplay:10.37,2013-02-03 04:33:00,
2013-02-02 23:38:00,44.5,37.1,30.09,North,360,0.0,0.0,75,0.00,CLR,,0.00,WeatherDisplay:10.37,2013-02-03 04:38:00,
2013-02-02 23:43:00,44.4,37.0,30.09,North,360,0.0,0.0,75,0.00,CLR,,0.00,WeatherDisplay:10.37,2013-02-03 04:43:00,
2013-02-02 23:48:00,44.4,37.3,30.09,North,360,0.0,0.0,76,0.00,CLR,,0.00,WeatherDisplay:10.37,2013-02-03 04:48:00,
2013-02-02 23:53:00,44.3,37.2,30.08,North,360,0.0,0.0,76,0.00,CLR,,0.00,WeatherDisplay:10.37,2013-02-03 04:53:00,
2013-02-02 23:58:00,44.3,37.2,30.08,North,360,0.0,0.0,76,0.00,CLR,,0.00,WeatherDisplay:10.37,2013-02-03 04:58:00,